UFO 2 (USA 95)

Last updated on Sun Jun 21 2026 00:03:03 GMT+0000 (Coordinated Universal Time)

1 22787U 93056A 26171.18380369 .00000114 00000+0 00000+0 0 9998 2 22787 11.8958 3.5382 0004971 9.3128 350.3609 1.00270176118577
UTC large
Height (km)
Speed (km/s)
/
Latitude / Longitude
Inclination (degrees)
Orbital Period (minutes)
Azimuth
Elevation
Range (km)
Doppler Factor

Next 0 passes for location: London (51.5072 / 0.1276)

No passes found over London.
UFO 2 (USA 95)